Laconia, NH

2:34 AM EST on November 17, 2019 (GMT -0500)
Laconia Municipal

Weather History for KLCI - October, 2019

Change the Weather History Date:

Monday, October 21, 2019

  Actual Average Record
Temperature  
Mean Temperature 51 °F -  
Max Temperature 61 °F 57 °F 73 °F (2000)
Min Temperature 41 °F 37 °F 25 °F (1988)
Degree Days  
Heating Degree Days 14    
Growing Degree Days 1 (Base 50)    
Moisture  
Dew Point 45 °F    
Average Humidity 95    
Maximum Humidity 100    
Minimum Humidity 62    
Precipitation  
Precipitation 0.00 in - - ()
Sea Level Pressure  
Sea Level Pressure 30.13 in    
Wind  
Wind Speed 1 mph ()    
Max Wind Speed 5 mph    
Max Gust Speed -    
Visibility 5.7 miles    
Events Fog    
Averages and records for this station are not official NWS values.
T = Trace of Precipitation, MM = Missing Value Source: Averaged Metar Reports

Daily Weather History Graph

Daily Weather History Graph

Search for Another Location

Airport or City:

Astronomy

Oct. 21, 2019 Rise Set
Actual Time 7:06 AM EDT 5:53 PM EDT
Civil Twilight 6:37 AM EDT 6:22 PM EDT
Nautical Twilight 6:04 AM EDT 6:55 PM EDT
Astronomical Twilight 5:31 AM EDT 7:28 PM EDT
Moon 11:59 PM EDT (10/21) 2:29 PM EDT (10/21)
Length of Visible Light 11h 44m
Length of Day
10h 46m
Waning Gibbous, 48% of the Moon is Illuminated
Oct 21
Waning Gibbous
Oct 27
New
Nov 4
First Quarter
Nov 12
Full
Nov 19
Last Quarter

Hourly Weather History & Observations

Time (EDT) Temp. Windchill Dew Point Humidity Pressure Visibility Wind Dir Wind Speed Gust Speed Precip Events Conditions
12:56 AM 46.9 °F - 46.9 °F 100% 30.08 in 10.0 mi Calm Calm - N/A   Overcast
1:26 AM 46.4 °F - 46.4 °F 100% 30.07 in 10.0 mi Calm Calm - N/A   Overcast
1:48 AM 46.4 °F - 46.4 °F 100% 30.08 in 10.0 mi Calm Calm - N/A   Overcast
1:56 AM 46.9 °F - 46.9 °F 100% 30.09 in 10.0 mi SSW 3.5 mph - N/A   Overcast
2:12 AM 46.4 °F - 46.4 °F 100% 30.08 in 10.0 mi Calm Calm - N/A   Overcast
2:43 AM 46.4 °F - 44.6 °F 93% 30.08 in 1.8 mi Calm Calm - N/A   Overcast
2:56 AM 46.0 °F - 46.0 °F 100% 30.09 in 4.0 mi Calm Calm - N/A   Mostly Cloudy
3:56 AM 46.0 °F - 46.0 °F 100% 30.08 in 9.0 mi Calm Calm - N/A   Overcast
4:37 AM 46.4 °F - 46.4 °F 100% 30.08 in 9.0 mi Calm Calm - N/A   Overcast
4:56 AM 45.0 °F - 45.0 °F 100% 30.10 in 4.0 mi Calm Calm - N/A   Overcast
4:59 AM 44.6 °F - 44.6 °F 100% 30.09 in 1.5 mi Calm Calm - N/A   Overcast
5:02 AM 44.6 °F - 44.6 °F 100% 30.09 in 0.8 mi Calm Calm - N/A   Overcast
5:45 AM 44.6 °F - 44.6 °F 100% 30.09 in 0.2 mi Calm Calm - N/A Fog Fog
5:56 AM 44.1 °F - 44.1 °F 100% 30.10 in 0.2 mi Calm Calm - N/A Fog Fog
6:11 AM 42.8 °F - 42.8 °F 100% 30.10 in 0.2 mi Calm Calm - N/A Fog Fog
6:24 AM 42.8 °F - 42.8 °F 100% 30.10 in 0.8 mi Calm Calm - N/A   Overcast
6:26 AM 42.8 °F - 42.8 °F 100% 30.10 in 1.8 mi Calm Calm - N/A   Overcast
6:38 AM 44.6 °F - 44.6 °F 100% 30.11 in 8.0 mi Calm Calm - N/A   Overcast
6:56 AM 44.1 °F - 44.1 °F 100% 30.13 in 4.0 mi Calm Calm - N/A   Overcast
7:08 AM 44.6 °F 43.1 °F 44.6 °F 100% 30.12 in 1.5 mi SSW 3.5 mph - N/A   Overcast
7:31 AM 44.6 °F - 44.6 °F 100% 30.13 in 0.2 mi Calm Calm - N/A Fog Fog
7:56 AM 45.0 °F - 45.0 °F 100% 30.15 in 0.2 mi Calm Calm - N/A Fog Fog
8:08 AM 44.6 °F - 44.6 °F 100% 30.14 in 0.8 mi Calm Calm - N/A   Overcast
8:16 AM 44.6 °F - 44.6 °F 100% 30.14 in 1.2 mi Calm Calm - N/A   Overcast
8:25 AM 44.6 °F - 44.6 °F 100% 30.14 in 3.0 mi Calm Calm - N/A   Overcast
8:56 AM 46.0 °F - 46.0 °F 100% 30.15 in 4.0 mi Calm Calm - N/A   Overcast
9:56 AM 48.0 °F - 48.0 °F 100% 30.14 in 10.0 mi NW 4.6 mph - N/A   Overcast
10:30 AM 48.2 °F - 46.4 °F 93% 30.14 in 10.0 mi North 3.5 mph - N/A   Overcast
10:50 AM 48.2 °F - 46.4 °F 93% 30.14 in 10.0 mi Variable 3.5 mph - N/A   Overcast
10:56 AM 48.9 °F - 46.9 °F 93% 30.15 in 10.0 mi NNW 3.5 mph - N/A   Overcast
11:56 AM 52.0 °F - 46.9 °F 83% 30.16 in 10.0 mi Calm Calm - N/A   Mostly Cloudy
12:08 PM 53.6 °F - 48.2 °F 82% 30.14 in 10.0 mi SW 3.5 mph - N/A   Partly Cloudy
12:56 PM 57.0 °F - 48.0 °F 72% 30.13 in 10.0 mi NW 3.5 mph - N/A   Clear
1:56 PM 57.9 °F - 46.9 °F 67% 30.12 in 9.0 mi NE 3.5 mph - N/A   Clear
2:56 PM 59.0 °F - 46.9 °F 64% 30.11 in 10.0 mi NNE 4.6 mph - N/A   Clear
3:56 PM 61.0 °F - 48.0 °F 62% 30.12 in 10.0 mi North 3.5 mph - N/A   Clear
4:56 PM 60.1 °F - 48.0 °F 64% 30.12 in 10.0 mi NNE 3.5 mph - N/A   Clear
5:56 PM 54.0 °F - 48.9 °F 83% 30.14 in 10.0 mi Calm Calm - N/A   Clear
6:56 PM 48.9 °F - 48.0 °F 97% 30.17 in 10.0 mi Calm Calm - N/A   Clear
7:56 PM 46.9 °F - 46.9 °F 100% 30.17 in 8.0 mi Calm Calm - N/A   Clear
8:56 PM 46.0 °F - 46.0 °F 100% 30.18 in 10.0 mi Calm Calm - N/A   Clear
9:56 PM 44.1 °F - 43.0 °F 96% 30.20 in 6.0 mi Calm Calm - N/A   Clear
10:23 PM 44.6 °F - 42.8 °F 93% 30.19 in 2.0 mi Calm Calm - N/A   Partly Cloudy
10:25 PM 44.6 °F - 42.8 °F 93% 30.19 in 1.0 mi Calm Calm - N/A   Mist
10:40 PM 42.8 °F - 42.8 °F 100% 30.20 in 0.5 mi Calm Calm - N/A Fog Fog
10:49 PM 42.8 °F - 42.8 °F 100% 30.19 in 1.2 mi Calm Calm - N/A   Mostly Cloudy
10:54 PM 42.8 °F - 42.8 °F 100% 30.18 in 2.0 mi Calm Calm - N/A   Scattered Clouds
10:56 PM 42.1 °F - 42.1 °F 100% 30.19 in 6.0 mi Calm Calm - N/A   Partly Cloudy
11:08 PM 41.0 °F - 41.0 °F 100% 30.18 in 2.0 mi Calm Calm - N/A   Mostly Cloudy
11:15 PM 41.0 °F - 41.0 °F 100% 30.18 in 5.0 mi Calm Calm - N/A   Scattered Clouds
11:56 PM 41.0 °F - 41.0 °F 100% 30.19 in 10.0 mi Calm Calm - N/A   Clear